Weather History for Palmdale, CA

Change the Weather History Date:

Tuesday, February 4, 2014

  Actual Average Record
Temperature  
Mean Temperature 45 °F 47 °F  
Max Temperature 56 °F 60 °F 75 °F (1951)
Min Temperature 34 °F 34 °F 15 °F (1979)
Degree Days  
Heating Degree Days 20 18  
Month to date heating degree days 91 74  
Since 1 July heating degree days 1682 1858  
Cooling Degree Days 0 0  
Month to date cooling degree days 0 0  
Year to date cooling degree days 0 0  
Moisture  
Dew Point 27 °F    
Average Humidity 48    
Maximum Humidity 70    
Minimum Humidity 26    
Precipitation  
Precipitation 0.00 in 0.05 in 0.90 in (1946)
Month to date precipitation T 0.18  
Year to date precipitation T 1.75  
Since 1 July precipitation 2.07 4.73  
Snow  
Snow 0.00 in - 0.00 in (1974)
Month to date snowfall 0.0  
Since 1 July snowfall 0.0  
Snow Depth 0.00 in    
Sea Level Pressure  
Sea Level Pressure 30.01 in    
Wind  
Wind Speed 10 mph (WNW)    
Max Wind Speed 20 mph    
Max Gust Speed 23 mph    
Visibility 10 miles    
Events      
T = Trace of Precipitation, MM = Missing Value Source: NWS Daily Summary

Daily Weather History Graph

Daily Weather History Graph

Search for Another Location

Airport:

Trip Planner

Search our weather history database for the weather conditions in past years. The results will help you decide how hot, cold, wet, or windy it might be!

Date:

Astronomy

Feb. 04, 2014 Rise Set
Actual Time 6:48 AM PST 5:24 PM PST
Civil Twilight 6:21 AM PST 5:51 PM PST
Nautical Twilight 5:51 AM PST 6:21 PM PST
Astronomical Twilight 5:22 AM PST 6:50 PM PST
Moon 9:44 AM PST (2/4) 11:07 PM PST (2/4)
Length of Visible Light 11h 29m
Length of Day
10h 36m
Waxing Crescent, 30% of the Moon is Illuminated
Feb 4
Waxing Crescent
Feb 6
First Quarter
Feb 14
Full
Feb 22
Last Quarter
Mar 1
New

Hourly Weather History & Observations

Time (PST) Temp. Windchill Dew Point Humidity Pressure Visibility Wind Dir Wind Speed Gust Speed Precip Events Conditions
12:53 AM 36.0 °F 29.6 °F 27.0 °F 70% 29.99 in 10.0 mi SW 8.1 mph - N/A   Clear
1:53 AM 35.1 °F 29.3 °F 26.1 °F 70% 29.99 in 10.0 mi SW 6.9 mph - N/A   Clear
2:53 AM 37.0 °F 28.1 °F 28.0 °F 70% 30.00 in 10.0 mi West 15.0 mph - N/A   Clear
3:53 AM 37.0 °F 30.4 °F 27.0 °F 67% 29.99 in 10.0 mi WSW 9.2 mph - N/A   Clear
4:53 AM 37.9 °F 29.6 °F 26.1 °F 62% 30.00 in 10.0 mi West 13.8 mph - N/A   Clear
5:53 AM 37.9 °F 30.5 °F 26.1 °F 62% 30.01 in 10.0 mi West 11.5 mph - N/A   Clear
6:53 AM 37.9 °F 32.1 °F 26.1 °F 62% 30.03 in 10.0 mi SW 8.1 mph - N/A   Clear
7:53 AM 39.9 °F 35.1 °F 27.0 °F 60% 30.04 in 10.0 mi West 6.9 mph - N/A   Clear
8:53 AM 44.1 °F 37.1 °F 28.0 °F 53% 30.05 in 10.0 mi NW 15.0 mph - N/A   Clear
9:53 AM 46.9 °F - 27.0 °F 46% 30.06 in 10.0 mi NW 13.8 mph - N/A   Clear
10:53 AM 48.0 °F - 26.1 °F 42% 30.06 in 10.0 mi NNW 9.2 mph - N/A   Clear
11:53 AM 51.1 °F - 24.1 °F 35% 30.04 in 10.0 mi NNW 5.8 mph - N/A   Clear
12:53 PM 53.1 °F - 23.0 °F 31% 29.99 in 10.0 mi WNW 6.9 mph - N/A   Mostly Cloudy
1:53 PM 55.0 °F - 21.9 °F 28% 29.97 in 10.0 mi Variable 3.5 mph - N/A   Overcast
2:53 PM 54.0 °F - 19.9 °F 26% 29.96 in 10.0 mi WSW 12.7 mph - N/A   Mostly Cloudy
3:53 PM 55.0 °F - 23.0 °F 29% 29.96 in 10.0 mi WNW 9.2 mph - N/A   Clear
4:53 PM 53.1 °F - 25.0 °F 34% 29.96 in 10.0 mi WSW 11.5 mph - N/A   Clear
5:53 PM 48.0 °F - 28.9 °F 48% 29.99 in 10.0 mi NW 12.7 mph - N/A   Clear
6:53 PM 46.0 °F 39.9 °F 28.9 °F 51% 30.01 in 10.0 mi WNW 13.8 mph - N/A   Overcast
7:53 PM 46.0 °F 40.6 °F 30.0 °F 54% 30.03 in 10.0 mi WNW 11.5 mph - N/A   Overcast
8:53 PM 45.0 °F 39.7 °F 28.9 °F 53% 30.04 in 10.0 mi WNW 10.4 mph - N/A   Mostly Cloudy
9:53 PM 45.0 °F 39.7 °F 30.0 °F 56% 30.05 in 10.0 mi WNW 10.4 mph - N/A   Partly Cloudy
10:53 PM 44.1 °F 39.0 °F 30.0 °F 58% 30.06 in 10.0 mi NW 9.2 mph - N/A   Mostly Cloudy
11:53 PM 43.0 °F 40.3 °F 30.9 °F 62% 30.06 in 10.0 mi NNW 4.6 mph - N/A   Mostly Cloudy